Find Starlink 35164

NORAD ID: 65519 Int'l Des: 2025-198 Owner: SPXS Country: US Constellation: starlink operational
LEOCIRCULAR

Live Position

Loading 3D Globe...

About Starlink 35164

Description loading...

Upcoming Passes

Passes for default location (London). Set your location on the main map for personalized predictions.

Altitude History

Loading altitude history...

Two-Line Element Set

1 65519U 25198AD 26107.16381477 .00015891 00000-0 54735-3 0 9995
2 65519 53.1585 92.0631 0001363 113.7393 246.3751 15.30209425 34518
Epoch: Apr 17, 2026 • Age: 11 hours

Current Status

Altitude 476.9 km
Velocity 7.63 km/s
Sub-Earth Point 31.72°N, 45.33°E
Launch Date Sep 5, 2025
Age 0.6 years
Type internet

Technical Details

Classification Payload
Mass 575.00 kg
Dry Mass 530.00 kg
Total Mass 575.00 kg
Length 0.30 m
Diameter 4.10 m
Span 29.00 m
Shape Box + pan
Manufacturer SPXS
Bus Type Starlink V2MO
Phase Status In Orbit
Owner/State SPXS/US

Most Searched